Location: Gälforsberget
(66.6500°N, 22.4167°E)
Time: 17:39:55
(UTC+00:00)

Cosmos 1354 Rocket - Pass Details

Date: 11 April 2026
Orbit: 760 x 779 km, 74.0° (Epoch: 16 May)

Event Time Altitude Azimuth Distance (km) Brightness Sun altitude
Rises 18:50:01 0° 220° (SW) 3,260 7.3 -5.0°
Reaches altitude 10° 18:52:24 10° 220° (SW) 2,335 6.6 -5.2°
Maximum altitude 18:57:43 88° 134° (SE) 790 4.1 -5.6°
Drops below altitude 10° 19:03:04 10° 44° (NE) 2,344 6.5 -6.0°
Sets 19:05:28 0° 44° (NE) 3,273 7.2 -6.2°
